Weather History for Nuiqsut, AK

Change the Weather History Date:

Monday, January 21, 2013

  Actual Average (PAKU) Record (PAKU)
Temperature  
Mean Temperature -10 °F -  
Max Temperature -7 °F -10 °F 57 °F (2003)
Min Temperature -13 °F -18 °F -43 °F (1989)
Degree Days  
Heating Degree Days 75    
Moisture  
Dew Point -15 °F    
Average Humidity 82    
Maximum Humidity 92    
Minimum Humidity 77    
Precipitation  
Precipitation 0.00 in - - ()
Sea Level Pressure  
Sea Level Pressure 30.57 in    
Wind  
Wind Speed 24 mph (NE)    
Max Wind Speed 29 mph    
Max Gust Speed 36 mph    
Visibility 2 miles    
Events      
Averages and records for this station are not official NWS values.
T = Trace of Precipitation, MM = Missing Value Source: NWS Daily Summary

Daily Weather History Graph

Daily Weather History Graph

Search for Another Location

Airport:

Trip Planner

Search our weather history database for the weather conditions in past years. The results will help you decide how hot, cold, wet, or windy it might be!

Date:

Astronomy

Jan. 21, 2013 Rise Set
Actual Time 12:02 PM AKST 2:29 PM AKST
Civil Twilight 10:03 AM AKST 4:28 PM AKST
Nautical Twilight 8:36 AM AKST 5:55 PM AKST
Astronomical Twilight 7:21 AM AKST 7:10 PM AKST
Moon 9:11 AM AKST (1/21) 8:41 AM AKST (1/21)
Length of Visible Light 6h 25m
Length of Day
2h 26m
Waxing Gibbous, 76% of the Moon is Illuminated
Jan 21
Waxing Gibbous
Jan 26
Full
Feb 3
Last Quarter
Feb 9
New
Feb 17
First Quarter

Hourly Weather History & Observations

Time (AKST) Temp. Windchill Dew Point Humidity Pressure Visibility Wind Dir Wind Speed Gust Speed Precip Events Conditions
12:53 AM -8.0 °F -34.9 °F -11.9 °F 83% 30.51 in 1.2 mi NE 25.3 mph - N/A   Partly Cloudy
1:14 AM -7.6 °F -34.4 °F -11.2 °F 84% 30.51 in 1.0 mi ENE 25.3 mph 34.5 mph N/A   Mist
1:23 AM -7.6 °F -34.8 °F -11.2 °F 84% 30.51 in 1.2 mi ENE 26.5 mph - N/A   Scattered Clouds
1:30 AM -7.6 °F -33.9 °F -11.2 °F 84% 30.51 in 1.0 mi ENE 24.2 mph 33.4 mph N/A   Mist
1:53 AM -8.0 °F -34.9 °F -11.0 °F 86% 30.51 in 1.0 mi NE 25.3 mph 35.7 mph N/A   Mist
3:00 AM -9.4 °F -38.2 °F -11.2 °F 92% 30.51 in 1.0 mi NE 28.8 mph 34.5 mph N/A   Overcast
3:53 AM -9.0 °F -35.8 °F -13.0 °F 83% 30.52 in 1.0 mi NE 24.2 mph 32.2 mph N/A   Overcast
4:53 AM -9.0 °F -35.3 °F -13.0 °F 83% 30.54 in 1.0 mi NE 23.0 mph - N/A   Mist
5:53 AM -9.0 °F -35.8 °F -13.0 °F 83% 30.54 in 1.8 mi NE 24.2 mph 32.2 mph N/A   Overcast
6:53 AM -9.9 °F -36.5 °F -14.1 °F 82% 30.55 in 1.8 mi NE 23.0 mph 28.8 mph N/A   Overcast
7:06 AM -9.4 °F -35.2 °F -14.8 °F 77% 30.55 in 2.5 mi NE 21.9 mph 29.9 mph N/A   Mostly Cloudy
7:18 AM -11.2 °F -38.2 °F -14.8 °F 84% 30.55 in 3.0 mi NE 23.0 mph - N/A   Scattered Clouds
7:53 AM -11.0 °F -36.8 °F -15.0 °F 83% 30.56 in 4.0 mi NE 20.7 mph - N/A   Clear
8:53 AM -11.9 °F -39.6 °F -16.1 °F 82% 30.57 in 7.0 mi NE 24.2 mph - N/A   Clear
9:39 AM -11.2 °F -39.7 °F -16.6 °F 77% 30.56 in 2.5 mi NE 26.5 mph - N/A   Clear
9:53 AM -11.9 °F -41.1 °F -16.1 °F 82% 30.57 in 2.0 mi NE 27.6 mph - N/A   Clear
10:02 AM -11.2 °F -40.1 °F -16.6 °F 77% 30.57 in 1.5 mi NE 27.6 mph 35.7 mph N/A   Clear
10:24 AM -11.2 °F -39.7 °F -16.6 °F 77% 30.57 in 1.5 mi NE 26.5 mph - N/A   Scattered Clouds
10:53 AM -11.9 °F -40.2 °F -16.1 °F 82% 30.57 in 1.0 mi NE 25.3 mph - N/A   Mist
10:56 AM -11.2 °F -39.2 °F -16.6 °F 77% 30.57 in 0.8 mi NE 25.3 mph 32.2 mph N/A   Mist
11:53 AM -11.9 °F -40.2 °F -16.1 °F 82% 30.58 in 0.8 mi NE 25.3 mph - N/A   Mostly Cloudy
12:53 PM -11.9 °F -39.6 °F -16.1 °F 82% 30.59 in 0.8 mi NE 24.2 mph 31.1 mph N/A   Mist
1:16 PM -11.2 °F -38.7 °F -16.6 °F 77% 30.59 in 1.0 mi NE 24.2 mph 32.2 mph N/A   Mist
1:53 PM -11.9 °F -38.6 °F -16.1 °F 82% 30.60 in 0.8 mi NE 21.9 mph - N/A   Overcast
2:09 PM -11.2 °F -37.0 °F -16.6 °F 77% 30.59 in 1.0 mi NE 20.7 mph - N/A   Overcast
2:16 PM -11.2 °F -37.6 °F -16.6 °F 77% 30.60 in 0.8 mi NE 21.9 mph - N/A   Overcast
2:32 PM -11.2 °F -38.2 °F -16.6 °F 77% 30.59 in 1.0 mi NE 23.0 mph - N/A   Overcast
2:53 PM -13.0 °F -37.5 °F -16.1 °F 86% 30.60 in 1.0 mi NE 17.3 mph - N/A   Overcast
3:21 PM -11.2 °F -37.0 °F -16.6 °F 77% 30.58 in 1.5 mi NE 20.7 mph - N/A   Scattered Clouds
3:51 PM -11.2 °F -37.6 °F -16.6 °F 77% 30.58 in 2.5 mi NE 21.9 mph - N/A   Clear
3:53 PM -11.9 °F -39.1 °F -16.1 °F 82% 30.59 in 2.5 mi NE 23.0 mph - N/A   Clear
4:28 PM -13.0 °F -37.5 °F -16.6 °F 84% 30.59 in 3.0 mi NE 17.3 mph - N/A   Clear
4:53 PM -13.0 °F -38.2 °F -17.0 °F 82% 30.60 in 4.0 mi NE 18.4 mph - N/A   Clear
5:53 PM -11.9 °F -36.1 °F -16.1 °F 82% 30.60 in 3.0 mi NE 17.3 mph - N/A   Clear
6:40 PM -11.2 °F -36.4 °F -16.6 °F 77% 30.59 in 2.0 mi NE 19.6 mph - N/A   Clear
6:53 PM -11.9 °F -38.6 °F -15.0 °F 86% 30.59 in 2.5 mi NE 21.9 mph - N/A   Clear
7:06 PM -11.2 °F -38.2 °F -14.8 °F 84% 30.59 in 1.8 mi NE 23.0 mph - N/A   Clear
7:13 PM -11.2 °F -37.6 °F -14.8 °F 84% 30.59 in 2.0 mi NE 21.9 mph - N/A   Clear
7:21 PM -11.2 °F -37.6 °F -14.8 °F 84% 30.59 in 1.8 mi NE 21.9 mph - N/A   Partly Cloudy
7:38 PM -11.2 °F -37.6 °F -14.8 °F 84% 30.59 in 1.8 mi NE 21.9 mph 31.1 mph N/A   Mostly Cloudy
7:53 PM -11.0 °F -37.9 °F -15.0 °F 83% 30.59 in 1.5 mi NE 23.0 mph - N/A   Overcast
8:53 PM -11.0 °F -36.2 °F -14.1 °F 86% 30.61 in 1.2 mi NE 19.6 mph - N/A   Overcast
9:53 PM -9.9 °F -37.0 °F -14.1 °F 82% 30.60 in 1.8 mi NE 24.2 mph 29.9 mph N/A   Mostly Cloudy
10:53 PM -9.9 °F -35.4 °F -14.1 °F 82% 30.60 in 1.0 mi NE 20.7 mph - N/A   Mist
11:22 PM -9.4 °F -35.2 °F -13.0 °F 84% 30.60 in 0.8 mi NE 21.9 mph - N/A   Overcast
11:53 PM -9.9 °F -36.0 °F -14.1 °F 82% 30.61 in 0.8 mi ENE 21.9 mph 28.8 mph N/A   Overcast